WA2GUG Weather Reports


Display with metric or nautical units.
time (UTC)temp
F
wind
direction
speed
MPH
gust
MPH
rain 1hr
in
rain 24hr
in
rain mn
in
humidity
%
barometer
mb
20260503025416 34 147 0.0 0.0 0.00 0.00 0.00 99 1009.0
20260503024916 34 167 0.0 0.0 0.00 0.00 0.00 99 1009.0
20260503024416 35 117 0.0 0.0 0.00 0.00 0.00 99 1009.0
20260503023916 35 128 0.0 0.0 0.00 0.00 0.00 99 1009.0
20260503023416 36 107 0.0 0.0 0.00 0.00 0.00 99 1009.0
20260503022916 36 150 0.0 0.0 0.00 0.00 0.00 99 1009.0
20260503022416 36 129 0.0 0.0 0.00 0.00 0.00 99 1009.0
20260503021916 36 129 0.0 0.0 0.00 0.00 0.00 99 1009.0
20260503021416 37 47 0.0 0.0 0.00 0.00 0.00 99 1009.0
20260503020916 37 106 0.0 0.0 0.00 0.00 0.00 99 1009.0
20260503020416 37 94 0.0 0.0 0.00 0.00 0.00 99 1009.0
20260503015916 37 111 0.0 0.0 0.00 0.00 0.00 99 1009.0
20260503015416 37 111 0.0 0.0 0.00 0.00 0.00 99 1009.0
20260503014916 37 136 0.0 0.0 0.00 0.00 0.00 99 1009.0
20260503014416 37 122 0.0 0.0 0.00 0.00 0.00 99 1009.0
20260503013916 37 135 0.0 0.0 0.00 0.00 0.00 99 1009.0
20260503013416 37 136 0.0 0.0 0.00 0.00 0.00 99 1009.0
20260503012916 38 138 0.0 0.0 0.00 0.00 0.00 99 1009.0
20260503012416 38 135 0.0 0.0 0.00 0.00 0.00 99 1009.0
20260503011916 38 135 0.0 0.0 0.00 0.00 0.00 99 1009.0
20260503011416 39 135 0.0 0.0 0.00 0.00 0.00 99 1009.0
20260503010916 39 140 0.0 0.0 0.00 0.00 0.00 99 1009.0
20260503010416 40 151 0.0 0.0 0.00 0.00 0.00 99 1009.0
20260503005916 40 157 0.0 0.0 0.00 0.00 0.00 99 1009.0
20260503005416 41 206 0.0 0.0 0.00 0.00 0.00 99 1009.0
20260503004916 41 130 0.0 0.0 0.00 0.00 0.00 99 1008.1
20260503004416 42 77 0.0 0.0 0.00 0.00 0.00 99 1008.1
20260503003916 42 64 0.0 0.0 0.00 0.00 0.00 99 1008.0
20260503003416 43 64 0.0 0.0 0.00 0.00 0.00 99 1008.0
20260503002916 43 67 0.0 0.0 0.00 0.00 0.00 99 1008.0
20260503002416 43 63 0.0 0.0 0.00 0.00 0.00 99 1008.0
20260503001916 44 71 0.0 0.0 0.00 0.00 0.00 99 1008.0
20260503001416 44 59 0.0 0.0 0.00 0.00 0.00 99 1008.0
20260503000916 45 61 0.0 0.0 0.00 0.00 0.00 99 1008.0
20260503000416 45 82 0.0 0.0 0.00 0.00 0.00 99 1008.0
20260502235916 46 86 0.0 0.0 0.00 0.00 0.00 99 1008.0
20260502235416 46 76 0.0 0.0 0.00 0.00 0.00 99 1008.0
20260502234916 47 51 0.0 0.0 0.00 0.00 0.00 99 1008.0
20260502234416 47 82 0.0 0.0 0.00 0.00 0.00 99 1008.0
20260502233916 48 70 0.0 0.0 0.00 0.00 0.00 99 1008.0
20260502233416 49 45 0.0 0.0 0.00 0.00 0.00 99 1008.0
20260502232916 50 80 0.0 1.0 0.00 0.00 0.00 99 1008.0
20260502232416 51 45 0.0 1.0 0.00 0.00 0.00 99 1008.0
20260502231916 52 52 0.0 0.0 0.00 0.00 0.00 99 1008.0
20260502231416 53 72 0.0 2.0 0.00 0.00 0.00 99 1008.0
20260502230916 55 77 0.0 3.0 0.00 0.00 0.00 99 1008.0
20260502230416 58 94 0.0 3.0 0.00 0.00 0.00 99 1008.0
20260502225916 59 49 0.0 3.0 0.00 0.00 0.00 99 1007.2
20260502225416 60 50 0.0 2.0 0.00 0.00 0.00 99 1008.0
20260502224916 61 37 0.0 5.0 0.00 0.00 0.00 99 1008.0
20260502224416 62 46 1.0 5.0 0.00 0.00 0.00 99 1008.0
20260502223916 62 42 0.0 2.0 0.00 0.00 0.00 99 1007.2
20260502223416 63 88 0.0 0.0 0.00 0.00 0.00 99 1008.0
20260502222916 63 41 0.0 0.0 0.00 0.00 0.00 99 1007.2
20260502222416 62 56 0.0 5.0 0.00 0.00 0.00 99 1008.0
20260502221916 61 45 0.0 5.0 0.00 0.00 0.00 99 1007.2
20260502221416 58 47 0.0 7.0 0.00 0.00 0.00 99 1007.2
20260502220916 55 48 1.0 7.0 0.00 0.00 0.00 99 1007.2
20260502220416 55 76 0.0 1.0 0.00 0.00 0.00 99 1007.2
20260502215916 56 42 0.0 1.0 0.00 0.00 0.00 99 1008.0
20260502215416 58 47 0.0 1.0 0.00 0.00 0.00 99 1008.0
20260502214916 62 46 0.0 3.0 0.00 0.00 0.00 99 1008.0
20260502214416 67 45 0.0 3.0 0.00 0.00 0.00 99 1007.2
20260502213916 69 41 0.0 3.0 0.00 0.00 0.00 99 1007.1
20260502213416 70 76 0.0 2.0 0.00 0.00 0.00 99 1007.1
20260502212916 70 45 0.0 3.0 0.00 0.00 0.00 99 1007.0
20260502212416 70 45 0.0 5.0 0.00 0.00 0.00 99 1007.0
20260502211916 70 140 0.0 5.0 0.00 0.00 0.00 99 1007.0
20260502211416 67 94 0.0 0.0 0.00 0.00 0.00 99 1007.0
20260502210916 64 21 0.0 0.0 0.00 0.00 0.00 99 1007.0
20260502210416 62 74 0.0 0.0 0.00 0.00 0.00 99 1007.0
20260502205916 64 34 0.0 3.0 0.00 0.00 0.00 99 1007.0
20260502205416 65 60 0.0 3.0 0.00 0.00 0.00 99 1007.0
20260502204916 67 46 0.0 3.0 0.00 0.00 0.00 99 1007.0
20260502204416 68 38 0.0 7.0 0.00 0.00 0.00 99 1007.0
20260502203916 68 46 0.0 7.0 0.00 0.00 0.00 99 1007.0
20260502203416 69 42 0.0 2.0 0.00 0.00 0.00 99 1007.0
20260502202916 71 43 0.0 2.0 0.00 0.00 0.00 99 1007.0
20260502202416 73 93 0.0 4.0 0.00 0.00 0.00 99 1007.0
20260502201916 74 40 0.0 4.0 0.00 0.00 0.00 99 1007.0
20260502201416 71 82 0.0 2.0 0.00 0.00 0.00 99 1007.0
20260502200916 68 42 0.0 0.0 0.00 0.00 0.00 99 1007.1
20260502200416 69 87 0.0 0.0 0.00 0.00 0.00 99 1007.1
20260502195916 69 44 0.0 2.0 0.00 0.00 0.00 99 1007.2
20260502195416 69 42 0.0 4.0 0.00 0.00 0.00 99 1007.2
20260502194916 67 42 0.0 4.0 0.00 0.00 0.00 99 1007.2
20260502194416 64 45 0.0 0.0 0.00 0.00 0.00 99 1007.2
20260502193916 64 81 0.0 0.0 0.00 0.00 0.00 99 1008.0
20260502193416 65 75 0.0 4.0 0.00 0.00 0.00 99 1007.2
20260502192916 66 47 0.0 4.0 0.00 0.00 0.00 99 1007.2
20260502192416 65 41 0.0 1.0 0.00 0.00 0.00 99 1007.2
20260502191916 65 43 0.0 2.0 0.00 0.00 0.00 99 1007.2
20260502191416 65 69 0.0 2.0 0.00 0.00 0.00 99 1007.2
20260502190916 63 87 0.0 0.0 0.00 0.00 0.00 99 1007.2
20260502190416 63 99 0.0 0.0 0.00 0.00 0.00 99 1007.2
20260502185916 64 141 0.0 1.0 0.00 0.00 0.00 99 1008.0
20260502185416 64 77 0.0 1.0 0.00 0.00 0.00 99 1007.2
20260502184916 66 71 0.0 0.0 0.00 0.00 0.00 99 1007.2
20260502184416 69 46 0.0 0.0 0.00 0.00 0.00 99 1007.2
20260502183916 70 90 0.0 0.0 0.00 0.00 0.00 99 1007.2
20260502183416 70 90 0.0 2.0 0.00 0.00 0.00 99 1007.2
20260502182916 72 38 0.0 2.0 0.00 0.00 0.00 99 1008.0
20260502182416 69 37 0.0 5.0 0.00 0.00 0.00 99 1007.2
20260502181916 65 6 0.0 5.0 0.00 0.00 0.00 99 1008.0
20260502181416 63 47 0.0 3.0 0.00 0.00 0.00 99 1007.2
20260502180916 61 41 0.0 3.0 0.00 0.00 0.00 99 1008.0
20260502180416 61 38 0.0 1.0 0.00 0.00 0.00 99 1007.2
20260502170416 64 38 0.0 3.0 0.00 0.00 0.00 99 1007.2
20260502163916 63 116 0.0 0.0 0.00 0.00 0.00 99 1008.0
20260502163416 62 44 0.0 0.0 0.00 0.00 0.00 99 1007.2
20260502162916 62 134 0.0 1.0 0.00 0.00 0.00 99 1008.0
20260502162416 62 47 0.0 1.0 0.00 0.00 0.00 99 1008.0
20260502161916 63 41 0.0 0.0 0.00 0.00 0.00 99 1008.0
20260502161416 63 87 0.0 0.0 0.00 0.00 0.00 99 1008.0
20260502160916 63 99 0.0 0.0 0.00 0.00 0.00 99 1008.0
20260502160416 62 106 0.0 3.0 0.00 0.00 0.00 99 1008.0
20260502151915 61 7 0.0 1.0 0.00 0.00 0.00 99 1008.0
20260502151415 61 84 0.0 1.0 0.00 0.00 0.00 99 1008.0
20260502150915 59 11 0.0 0.0 0.00 0.00 0.00 99 1008.0
20260502150415 59 86 0.0 0.0 0.00 0.00 0.00 99 1008.0
20260502130415 54 39 0.0 0.0 0.00 0.00 0.00 99 1008.2
20260502123415 47 45 0.0 0.0 0.00 0.00 0.00 99 1008.2
20260502122916 47 52 0.0 1.0 0.00 0.00 0.00 99 1008.2
20260502122415 47 59 0.0 7.0 0.00 0.00 0.00 99 1008.2
20260502121915 48 40 1.0 7.0 0.00 0.00 0.00 99 1009.0
20260502121415 48 70 0.0 5.0 0.00 0.00 0.00 99 1009.0
20260502120915 46 43 1.0 8.0 0.00 0.00 0.00 99 1008.2
20260502120415 46 47 2.0 8.0 0.00 0.00 0.00 99 1008.1
20260502115915 0 43 0.0 2.0 0.00 0.00 0.00 99 1008.0
20260502115415 0 54 0.0 0.0 0.00 0.00 0.00 99 1008.0
20260502114915 0 65 0.0 2.0 0.00 0.00 0.00 99 1008.0
20260502114415 0 47 0.0 2.0 0.00 0.00 0.00 99 1008.0
20260502113915 0 48 0.0 0.0 0.00 0.00 0.00 99 1008.1
20260502113415 0 76 0.0 0.0 0.00 0.00 0.00 99 1008.0
20260502112915 0 75 0.0 0.0 0.00 0.00 0.00 99 1008.1
20260502112415 0 53 0.0 0.0 0.00 0.00 0.00 99 1008.0
20260502111915 0 58 0.0 0.0 0.00 0.00 0.00 99 1008.0
20260502111415 0 53 0.0 0.0 0.00 0.00 0.00 99 1008.0
20260502110915 0 72 0.0 0.0 0.00 0.00 0.00 99 1008.0
20260502110415 0 57 0.0 1.0 0.00 0.00 0.00 99 1008.0
20260502105915 0 61 0.0 2.0 0.00 0.00 0.00 99 1008.0
20260502105415 0 52 0.0 2.0 0.00 0.00 0.00 99 1008.0
20260502104915 0 90 0.0 0.0 0.00 0.00 0.00 99 1008.0
20260502104415 0 225 0.0 0.0 0.00 0.00 0.00 99 1008.0
20260502103915 0 189 0.0 0.0 0.00 0.00 0.00 99 1007.2
20260502103415 0 140 0.0 0.0 0.00 0.00 0.00 99 1008.0
20260502102915 0 135 0.0 0.0 0.00 0.00 0.00 99 1007.2
20260502102415 0 55 0.0 0.0 0.00 0.00 0.00 99 1008.0
20260502101915 0 92 0.0 0.0 0.00 0.00 0.00 99 1007.2
20260502101415 0 152 0.0 0.0 0.00 0.00 0.00 99 1008.0
20260502100915 0 202 0.0 0.0 0.00 0.00 0.00 99 1007.2
20260502100415 0 247 0.0 0.0 0.00 0.00 0.00 99 1008.0
20260502091415 0 251 0.0 0.0 0.00 0.00 0.00 99 1008.0
20260502090915 0 287 0.0 0.0 0.00 0.00 0.00 99 1008.0
20260502090415 0 324 0.0 0.0 0.00 0.00 0.00 99 1008.0
20260502071415 46 175 0.0 0.0 0.00 0.00 0.00 99 1008.0
20260502070915 46 173 0.0 0.0 0.00 0.00 0.00 99 1007.2
20260502070415 46 42 0.0 0.0 0.00 0.00 0.00 99 1008.0
20260502065915 46 294 0.0 0.0 0.00 0.00 0.00 99 1007.2
20260502065415 46 229 0.0 0.0 0.00 0.00 0.00 99 1008.0
20260502064915 46 226 0.0 0.0 0.00 0.00 0.00 99 1007.2
20260502064415 46 262 0.0 0.0 0.00 0.00 0.00 99 1008.0
20260502063915 46 233 0.0 0.0 0.00 0.00 0.00 99 1007.2
20260502063415 46 279 0.0 0.0 0.00 0.00 0.00 99 1008.0
20260502062915 46 165 0.0 0.0 0.00 0.00 0.00 99 1007.2
20260502062415 46 123 0.0 0.0 0.00 0.00 0.00 99 1008.0
20260502061915 46 219 0.0 0.0 0.00 0.00 0.00 99 1007.2
20260502061415 46 237 0.0 0.0 0.00 0.00 0.00 99 1007.2
20260502060915 46 73 0.0 0.0 0.00 0.00 0.00 99 1007.2
20260502060415 46 303 0.0 0.0 0.00 0.00 0.00 99 1007.2
20260502055915 46 151 0.0 0.0 0.00 0.00 0.00 99 1007.2
20260502055415 46 165 0.0 0.0 0.00 0.00 0.00 99 1008.0
20260502054915 46 182 0.0 0.0 0.00 0.00 0.00 99 1008.0
20260502054415 46 208 0.0 0.0 0.00 0.00 0.00 99 1008.0
20260502053915 46 254 0.0 0.0 0.00 0.00 0.00 99 1007.2
20260502053415 46 223 0.0 0.0 0.00 0.00 0.00 99 1008.0
20260502052915 46 235 0.0 0.0 0.00 0.00 0.00 99 1007.2
20260502052415 46 277 0.0 0.0 0.00 0.00 0.00 99 1008.0
20260502051915 46 212 0.0 0.0 0.00 0.00 0.00 99 1007.2
20260502051415 46 178 0.0 0.0 0.00 0.00 0.00 99 1008.0
20260502050915 46 137 0.0 0.0 0.00 0.00 0.00 99 1008.0
20260502050415 46 176 0.0 0.0 0.00 0.00 0.00 99 1008.0
20260502045915 46 209 0.0 0.0 0.00 0.00 0.00 99 1008.0
20260502045415 46 46 0.0 0.0 0.00 0.00 0.00 99 1008.0
20260502044915 46 12 0.0 0.0 0.00 0.00 0.00 99 1008.0
20260502044415 46 138 0.0 0.0 0.00 0.00 0.00 99 1008.0
20260502043915 46 218 0.0 0.0 0.00 0.00 0.00 99 1008.0
20260502043415 46 309 0.0 0.0 0.00 0.00 0.00 99 1008.0
20260502042915 46 166 0.0 0.0 0.00 0.00 0.00 99 1007.2
20260502042415 46 136 0.0 0.0 0.00 0.00 0.00 99 1008.0
20260502041915 46 181 0.0 0.0 0.00 0.00 0.00 99 1008.0
20260502041415 46 225 0.0 0.0 0.00 0.00 0.00 99 1008.0
20260502040915 46 255 0.0 0.0 0.00 0.00 0.00 99 1008.0
20260502040415 46 256 0.0 0.0 0.00 0.00 0.00 99 1008.0
20260502035915 46 255 0.0 0.0 0.00 0.00 0.00 99 1008.0
20260502035415 46 235 0.0 0.0 0.00 0.00 0.00 99 1008.0
20260502034915 46 228 0.0 0.0 0.00 0.00 0.00 99 1008.0
20260502034415 46 181 0.0 0.0 0.00 0.00 0.00 99 1008.0
20260502033915 46 134 0.0 0.0 0.00 0.00 0.00 99 1008.0
20260502033415 46 147 0.0 0.0 0.00 0.00 0.00 99 1008.0
20260502032915 46 167 0.0 0.0 0.00 0.00 0.00 99 1008.0
20260502032415 46 169 0.0 0.0 0.00 0.00 0.00 99 1008.0
20260502031915 46 2 0.0 0.0 0.00 0.00 0.00 99 1008.0
20260502031415 46 36 0.0 0.0 0.00 0.00 0.00 99 1007.2
20260502030915 47 158 0.0 0.0 0.00 0.00 0.00 99 1008.0
20260502030415 47 91 0.0 0.0 0.00 0.00 0.00 99 1007.2
20260502025915 48 164 0.0 0.0 0.00 0.00 0.00 99 1008.0